Location: Newark
(45.2500°N, 7.5833°E)
Time: 10:38:08
(UTC+00:00)

A-11 Canister half - Pass Details

Date: 31 January 2020
Orbit: 1524 x 1684 km, 47.3° (Epoch: 22 February)

Event Time Altitude Azimuth Distance (km) Brightness Sun altitude
Rises 22:22:35 0° 293° (WNW) 4,744 12.0 -57.4°
Reaches altitude 10° 22:25:58 10° 285° (WNW) 3,779 11.3 -57.8°
Enters shadow 22:26:56 13° 281° (WNW) 3,524 11.1 -57.9°
